This demonstration page uses our WeatherBlox Daily Observations layout. Learn more.

Left ArrowRight Arrow

36.17497, -115.13722

Hourly Observations for July 3, 2021

Temp ( °F °C ) Dew Point ( °F °C ) Humidity (%) Winds ( mph kmh ) Pressure ( in mb ) Visibility ( mi km ) Precip ( " mm )
12:53 am 00:53 Clear 95 35 31 -0.6 10 10 N 6 9 29.77 1008 10 16 0.00 0.00
1:53 am 01:53 Clear 91 32.8 33 0.6 13 13 NNW 5 7 29.76 1008 10 16 0.00 0.00
2:53 am 02:53 Clear 92 33.3 34 1.1 13 13 Calm 29.77 1008 10 16 0.00 0.00
3:53 am 03:53 Clear 90 32.2 36 2.2 15 15 Calm 29.78 1008 10 16 0.00 0.00
4:53 am 04:53 Clear 90 32.2 34 1.1 14 14 NW 3 6 29.79 1009 10 16 0.00 0.00
5:53 am 05:53 Sunny 89 31.7 34 1.1 14 14 NW 6 9 29.81 1010 10 16 0.00 0.00
6:53 am 06:53 Sunny 88 31.1 37 2.8 16 16 NNW 6 9 29.83 1010 10 16 0.00 0.00
7:53 am 07:53 Sunny 91 32.8 39 3.9 16 16 N 3 6 29.84 1010 10 16 0.00 0.00
8:53 am 08:53 Sunny 95 35 35 1.7 12 12 Calm 29.85 1011 10 16 0.00 0.00
9:53 am 09:53 Sunny 97 36.1 34 1.1 11 11 Calm 29.84 1011 10 16 0.00 0.00
10:53 am 10:53 Sunny 101 38.3 33 0.6 9 9 VRB 3 6 29.84 1010 10 16 0.00 0.00
11:53 am 11:53 Sunny 103 39.4 33 0.6 9 9 E 6 9 29.83 1010 10 16 0.00 0.00
12:53 pm 12:53 Sunny 105 40.6 36 2.2 9 9 VRB 3 6 29.81 1010 10 16 0.00 0.00
1:53 pm 13:53 Sunny 107 41.7 42 5.6 11 11 WSW 20 31 29.78 1008 10 16 0.00 0.00
2:02 pm 14:02 Sunny 108 42.2 41 5 10 10 WSW 24 39 29.59 1002 10 16 0.00 0.00
2:53 pm 14:53 Sunny 102 38.9 45 7.2 14 14 SW 21 33 29.77 1008 10 16 0.00 0.00
3:53 pm 15:53 Sunny 102 38.9 48 8.9 16 16 WSW 17 28 29.77 1008 10 16 0.00 0.00
4:53 pm 16:53 Sunny 105 40.6 42 5.6 12 12 NNW 20 31 29.76 1008 10 16 0.00 0.00
5:53 pm 17:53 Sunny 102 38.9 45 7.2 14 14 NNW 23 37 29.75 1008 10 16 0.00 0.00
6:53 pm 18:53 Sunny 100 37.8 46 7.8 16 16 NW 15 24 29.77 1008 10 16 0.00 0.00
7:53 pm 19:53 Sunny 97 36.1 46 7.8 17 17 NW 15 24 29.78 1008 10 16 0.00 0.00
8:53 pm 20:53 Clear 96 35.6 46 7.8 18 18 NNW 9 15 29.78 1009 10 16 0.00 0.00
9:53 pm 21:53 Clear 95 35 48 8.9 20 20 NW 8 13 29.80 1009 10 16 0.00 0.00
10:53 pm 22:53 Clear 95 35 48 8.9 20 20 NNW 5 7 29.81 1010 10 16 0.00 0.00
11:53 pm 23:53 Clear 93 33.9 49 9.4 22 22 NW 13 20 29.80 1009 10 16 0.00 0.00

Powered by AerisWeather